Total_Precipitation_Accumulation
0.18 0.25 0.61 0.76 0.85 0.85 0.79 0.72 0.70 0.69 0.68 0.70 0.71 0.70 0.67 0.67 0.72 0.67 0.63 0.60 0.65 0.75 0.84 0.86 0.82 0.73 0.63 0.59 0.56 0.51 0.48 0.45 0.43 0.40 0.35 0.38 0.43 0.43 0.37 0.39 0.46 0.50 0.61
0.16 0.25 0.58 0.74 0.85 0.82 0.80 0.74 0.69 0.67 0.70 0.77 0.84 0.83 0.74 0.70 0.71 0.69 0.64 0.63 0.66 0.75 0.91 0.90 0.79 0.65 0.48 0.38 0.36 0.36 0.34 0.29 0.25 0.16 0.12 0.15 0.24 0.32 0.32 0.33 0.39 0.48 0.55
0.17 0.26 0.54 0.77 0.87 0.87 0.84 0.78 0.72 0.68 0.73 0.86 0.95 0.92 0.82 0.72 0.70 0.72 0.66 0.66 0.72 0.81 0.86 0.80 0.69 0.56 0.41 0.34 0.27 0.25 0.24 0.20 0.15 0.08 0.08 0.13 0.21 0.32 0.31 0.34 0.42 0.51 0.56
0.23 0.29 0.50 0.84 0.92 0.91 0.88 0.86 0.81 0.77 0.76 0.83 0.94 0.89 0.83 0.80 0.81 0.75 0.71 0.73 0.76 0.77 0.73 0.66 0.56 0.48 0.37 0.30 0.25 0.23 0.22 0.17 0.11 0.08 0.14 0.17 0.23 0.39 0.42 0.44 0.50 0.53 0.57
0.31 0.37 0.61 0.91 1.02 0.97 0.94 0.88 0.89 0.89 0.87 0.88 0.89 0.88 0.85 0.81 0.83 0.81 0.75 0.73 0.71 0.73 0.67 0.58 0.48 0.39 0.32 0.28 0.24 0.25 0.22 0.16 0.09 0.09 0.15 0.21 0.35 0.56 0.58 0.56 0.55 0.52 0.50
0.40 0.56 0.79 1.03 1.12 1.10 1.02 0.95 0.97 1.03 1.07 1.03 0.99 0.94 0.92 0.87 0.89 0.88 0.78 0.66 0.64 0.63 0.63 0.55 0.45 0.39 0.33 0.29 0.27 0.26 0.24 0.16 0.09 0.10 0.14 0.22 0.38 0.65 0.66 0.62 0.60 0.58 0.57
0.48 0.70 0.97 1.20 1.26 1.21 1.13 1.10 1.11 1.18 1.21 1.20 1.15 1.10 1.02 0.98 0.96 0.89 0.74 0.64 0.64 0.64 0.63 0.59 0.48 0.42 0.37 0.32 0.34 0.32 0.22 0.12 0.09 0.13 0.18 0.25 0.41 0.66 0.68 0.65 0.69 0.71 0.69
0.75 0.96 1.21 1.43 1.42 1.28 1.18 1.13 1.12 1.23 1.26 1.21 1.13 1.15 1.14 1.10 1.04 0.94 0.80 0.70 0.71 0.74 0.75 0.67 0.58 0.49 0.43 0.38 0.35 0.31 0.19 0.11 0.10 0.12 0.18 0.24 0.43 0.66 0.72 0.67 0.71 0.77 0.79
1.26 1.42 1.52 1.58 1.51 1.46 1.30 1.15 1.10 1.14 1.22 1.23 1.18 1.13 1.14 1.16 1.17 1.03 0.91 0.86 0.81 0.82 0.81 0.74 0.65 0.59 0.52 0.45 0.34 0.25 0.17 0.12 0.10 0.10 0.12 0.19 0.41 0.71 0.84 0.81 0.83 0.89 0.86
1.74 1.85 1.89 1.86 1.73 1.60 1.46 1.24 1.12 1.13 1.16 1.18 1.17 1.05 0.96 1.02 1.11 1.02 0.88 0.89 0.87 0.86 0.80 0.71 0.68 0.68 0.61 0.52 0.36 0.23 0.17 0.15 0.11 0.11 0.14 0.24 0.52 0.83 0.98 0.94 0.97 0.95 0.91
2.11 2.16 2.25 2.22 2.05 1.90 1.66 1.34 1.23 1.24 1.23 1.16 1.12 0.98 0.97 1.02 1.02 0.93 0.82 0.76 0.76 0.79 0.74 0.71 0.70 0.68 0.62 0.56 0.40 0.25 0.20 0.17 0.13 0.13 0.17 0.34 0.64 0.86 0.97 0.95 0.99 0.88 0.79
2.28 2.34 2.39 2.43 2.39 2.29 2.03 1.71 1.55 1.41 1.35 1.20 1.06 1.04 0.98 1.01 1.07 0.97 0.92 0.82 0.74 0.72 0.71 0.74 0.76 0.72 0.61 0.54 0.46 0.31 0.24 0.22 0.21 0.20 0.23 0.40 0.63 0.84 0.96 0.94 0.92 0.84 0.72
2.47 2.55 2.58 2.67 2.61 2.48 2.22 1.91 1.71 1.61 1.54 1.43 1.24 1.15 1.07 1.08 1.09 1.11 1.08 1.02 0.89 0.76 0.77 0.75 0.72 0.60 0.54 0.50 0.49 0.36 0.28 0.25 0.26 0.25 0.29 0.40 0.61 0.91 1.06 1.02 0.91 0.85 0.77
2.62 2.58 2.66 2.76 2.75 2.60 2.35 2.14 1.85 1.74 1.69 1.64 1.49 1.39 1.35 1.24 1.17 1.10 1.03 1.01 1.01 0.86 0.86 0.84 0.70 0.56 0.52 0.47 0.47 0.44 0.37 0.33 0.31 0.32 0.33 0.40 0.57 0.83 0.99 0.98 0.94 0.91 0.87
2.56 2.65 2.77 2.75 2.71 2.70 2.60 2.32 2.03 1.89 1.80 1.75 1.77 1.63 1.53 1.43 1.33 1.30 1.18 1.10 1.01 0.99 0.99 0.97 0.86 0.76 0.67 0.58 0.53 0.50 0.46 0.39 0.36 0.37 0.36 0.36 0.43 0.60 0.80 0.93 1.03 1.07 1.04
2.30 2.57 2.75 2.78 2.73 2.67 2.69 2.57 2.24 1.92 1.87 1.85 1.81 1.82 1.76 1.66 1.54 1.46 1.35 1.29 1.19 1.11 1.08 1.07 0.97 0.98 0.94 0.83 0.69 0.60 0.54 0.48 0.42 0.39 0.38 0.39 0.42 0.48 0.62 0.83 0.99 1.12 1.24
2.05 2.33 2.59 2.81 2.85 2.71 2.66 2.71 2.62 2.29 2.01 1.83 1.79 1.82 1.85 1.78 1.69 1.61 1.57 1.41 1.24 1.22 1.23 1.24 1.19 1.17 1.11 1.00 0.86 0.79 0.72 0.66 0.58 0.51 0.46 0.44 0.45 0.47 0.54 0.71 0.89 1.07 1.28
1.91 2.12 2.34 2.49 2.72 2.73 2.65 2.63 2.67 2.53 2.31 2.08 1.87 1.81 1.79 1.74 1.74 1.73 1.69 1.64 1.46 1.37 1.40 1.36 1.30 1.26 1.16 1.08 0.99 0.93 0.87 0.82 0.77 0.73 0.68 0.61 0.57 0.49 0.53 0.66 0.80 0.97 1.18
1.79 2.03 2.32 2.30 2.43 2.69 2.89 2.80 2.65 2.55 2.39 2.24 2.04 1.83 1.75 1.81 1.85 1.80 1.67 1.65 1.68 1.56 1.46 1.45 1.41 1.34 1.25 1.19 1.14 1.07 1.00 0.96 0.89 0.87 0.86 0.81 0.76 0.69 0.62 0.67 0.71 0.78 1.00
1.78 1.97 2.26 2.30 2.39 2.63 2.91 2.97 2.88 2.70 2.47 2.36 2.15 1.89 1.77 1.76 1.87 1.83 1.71 1.71 1.76 1.70 1.54 1.47 1.41 1.40 1.34 1.35 1.34 1.23 1.14 1.07 1.03 0.98 0.92 0.90 0.88 0.83 0.77 0.70 0.67 0.70 0.84
1.88 1.94 2.12 2.27 2.39 2.50 2.63 2.62 2.54 2.56 2.54 2.47 2.31 2.14 2.00 1.92 1.93 1.95 1.85 1.84 1.85 1.78 1.68 1.66 1.66 1.58 1.49 1.48 1.45 1.29 1.20 1.16 1.08 1.02 0.96 0.86 0.80 0.82 0.83 0.80 0.71 0.66 0.70
1.79 1.87 2.07 2.24 2.32 2.32 2.44 2.60 2.53 2.60 2.69 2.74 2.66 2.44 2.27 2.17 2.12 2.07 2.07 2.10 2.04 1.94 1.86 1.80 1.78 1.73 1.62 1.62 1.62 1.55 1.35 1.29 1.15 0.98 0.93 0.86 0.81 0.78 0.78 0.85 0.85 0.74 0.66
1.66 1.88 2.02 2.13 2.27 2.31 2.54 2.95 2.90 2.80 2.76 2.79 2.81 2.70 2.52 2.39 2.33 2.22 2.17 2.25 2.24 2.11 1.99 1.91 1.84 1.76 1.77 1.74 1.66 1.75 1.54 1.27 1.13 1.04 0.94 0.87 0.86 0.85 0.82 0.82 0.86 0.84 0.74
1.46 1.73 2.02 2.16 2.32 2.51 2.75 2.96 2.99 2.74 2.59 2.57 2.61 2.70 2.71 2.48 2.41 2.39 2.36 2.33 2.36 2.32 2.14 2.05 1.97 1.88 1.87 1.84 1.76 1.58 1.48 1.30 1.22 1.10 0.97 0.94 0.92 0.87 0.83 0.82 0.83 0.87 0.89
1.32 1.50 1.77 2.05 2.20 2.47 2.69 2.83 2.99 2.77 2.50 2.54 2.56 2.55 2.64 2.58 2.40 2.37 2.34 2.27 2.23 2.25 2.28 2.24 2.08 1.98 1.87 1.74 1.66 1.55 1.45 1.29 1.14 1.13 0.99 0.88 0.92 0.89 0.84 0.83 0.87 0.91 0.94
1.16 1.29 1.45 1.69 1.83 1.99 2.23 2.47 2.68 2.72 2.63 2.54 2.41 2.38 2.43 2.43 2.38 2.35 2.35 2.25 2.13 2.07 2.06 2.15 2.16 2.04 1.94 1.81 1.67 1.58 1.49 1.40 1.25 1.23 1.18 0.98 0.94 0.92 0.91 0.89 0.86 0.88 0.92